[Iaude] MPEC C35: 2024 BC6 [a=1.45,e=0.41,i=12.6,H=28.0]

mpec at marsden.cfa.harvard.edu mpec at marsden.cfa.harvard.edu
Sat Feb 3 03:01:48 EST 2024


M.P.E.C. 2024-C35                              Issued 2024 February 3, 08:00 UT

     The Minor Planet Electronic Circulars contain information on unusual
         minor planets, routine data on comets and natural satellites,
         and occasional editorial announcements.  They are published
    on behalf of Division F of the International Astronomical Union by the
          Minor Planet Center, Smithsonian Astrophysical Observatory,
                          Cambridge, MA 02138, U.S.A.
			  
             Prepared using the Tamkin Foundation Computer Network

                              MPC at CFA.HARVARD.EDU
            URL https://www.minorplanetcenter.net/    ISSN 1523-6714

                                    2024 BC6                                    


Observations:
     K24B06C*1C2024 01 31.25544508 30 45.810+58 15 40.39         20.68GVEC035G96
     K24B06C 1C2024 01 31.26596808 31 29.150+58 14 29.80               VEC035G96
     K24B06C 1C2024 01 31.27122808 31 50.851+58 13 53.11         19.85GVEC035G96
     K24B06C KC2024 01 31.30706508 34 14.401+58 09 32.04         19.78GVEC035I52
     K24B06C KC2024 01 31.30791808 34 17.738+58 09 25.38         20.21GVEC035I52
     K24B06C KC2024 01 31.30877208 34 21.097+58 09 18.65         20.17GVEC035I52
     K24B06C KC2024 01 31.30962808 34 24.452+58 09 12.64         20.50GVEC035I52
     K24B06C KC2024 02 01.28238309 20 51.01 +56 08 44.7          21.4 GVEC035H21
     K24B06C KC2024 02 01.29077409 21 04.79 +56 07 48.9          21.1 GVEC035H21
     K24B06C KC2024 02 01.29636709 21 14.01 +56 07 10.9          20.8 GVEC035H21
     K24B06C 7C2024 02 02.02209309 39 14.830+54 58 22.44         21.4 GVEC035Z84
     K24B06C 7C2024 02 02.03873909 39 30.922+54 57 01.89         21.3 GVEC035Z84
     K24B06C 7C2024 02 02.05602009 39 47.424+54 55 35.83         22.3 GVEC035Z84
     K24B06C KC2024 02 03.26351509 56 49.11 +53 34 15.8          21.9 GVEC035H21
     K24B06C KC2024 02 03.26920509 56 51.82 +53 33 58.1          22.1 GVEC035H21
     K24B06C KC2024 02 03.27470609 56 54.47 +53 33 40.5          21.7 GVEC035H21

Observer details:
G96 Mt. Lemmon Survey.  Observer J. K. Hogan.  Measurers T. Beuden, V. F.
    Carvajal, D. Fay, J. B. Fazekas, D. C. Fuls, A. R. Gibbs, A. D. Grauer, H.
    Groeller, J. K. Hogan, R. A. Kowalski, S. M. Larson, G. J. Leonard, D.
    Rankin, R. L. Seaman, F. C. Shelly, K. W. Wierzchos.  1.5-m reflector +
    10K CCD.
H21 Astronomical Research Observatory, Westfield.  Observer R. Holmes.
    Measurers T. Linder, R. Holmes, L. Horn.  0.76-m f/3.0 astrograph + CCD.
I52 Steward Observatory, Mt. Lemmon Station.  Observer R. A. Kowalski.
    Measurers E. C. Beshore, D. Fay, J. B. Fazekas, D. C. Fuls, A. R. Gibbs,
    A. D. Grauer, H. Groeller, J. K. Hogan, R. A. Kowalski, S. M. Larson, G.
    J. Leonard, D. Rankin, R. L. Seaman, F. C. Shelly, K. W. Wierzchos.  1.0-m
    prime focus + CCD.
Z84 Calar Alto-Schmidt.  Observers F. Ocana, R. Kresken, M. Micheli, L.
    Conversi.  Measurers F. Ocana, M. Micheli.  0.8-m f/3 Schmidt + CCD.

Orbital elements:
2024 BC6                                                 Earth MOID = 0.0011 AU
Epoch 2023 Sept. 13.0 TT = JDT 2460200.5                Bell                    
M 306.08834              (2000.0)            P               Q                  
n   0.56308613     Peri.  302.98164     +0.30914016     -0.93526902             
a   1.4523997      Node   128.04346     +0.92915271     +0.25839566             
e   0.4123261      Incl.   12.64114     +0.20275008     +0.24187506             
P   1.75           H   28.09          G   0.15           U   8                  
Residuals in seconds of arc
240131 G96  1.2-  0.2+    240131 I52  0.2+  0.3+    240202 Z84  0.2+  0.1+
240131 G96  2.1-  0.7+    240201 H21  0.0   0.0     240203 H21  0.1+  0.0
240131 G96  0.6-  0.3+    240201 H21  0.3-  0.1+    240203 H21  0.1-  0.2+
240131 I52  0.2+  0.1+    240201 H21  0.1+  0.4-    240203 H21  0.0   0.1-
240131 I52  0.1+  0.0     240202 Z84  0.3+  0.2-
240131 I52  0.2+  0.3-    240202 Z84  0.4+  0.2+

Ephemeris:
2024 BC6                 a,e,i = 1.45, 0.41, 13                  q = 0.8535
Date    TT    R. A. (2000) Decl.     Delta      r    Elong.  Phase     V
2024 01 04    22 33 35.5 -46 41 14   0.1787  0.8779    49.5   121.6    29.0
...
2024 01 19    22 59 29.1 -45 51 01   0.07214 0.9336    44.3   132.6    28.2
...
2024 01 27    23 54 44.2 -35 35 12   0.01694 0.9731    47.1   132.2    25.1
...
2024 02 02    09 38 43.7 +54 58 37   0.02626 1.0060   141.4    37.7    21.7
2024 02 03    09 53 51.9 +53 48 16   0.03311 1.0117   141.7    37.1    22.2
2024 02 04    10 03 16.0 +52 57 19   0.04000 1.0175   141.9    36.7    22.6
...
2024 02 10    10 23 36.4 +50 25 45   0.08196 1.0530   142.7    34.6    24.2
...
2024 02 18    10 29 07.1 +48 39 14   0.1395  1.1026   142.9    32.7    25.4
...
2024 03 04    10 31 01.5 +45 24 24   0.2546  1.1992   140.6    31.7    26.9

M. P. C. Staff               (C) Copyright 2024 MPC           M.P.E.C. 2024-C35





More information about the Iaude mailing list